User: anonymous   Login
Location: Fremont
(37.5480°N, 121.9880°W)
Time: 02:11:15
(UTC-07:00)
Language:

Cosmos 1844 Rocket - Orbit

View from above orbital plane
View from above orbital plane
View from above satellite
View from above satellite

Ground track
Ground track

The orbit data is extracted from the following two-line orbital elements,

1 17974U 87041B   17083.58230201 +.00000158 +00000-0 +10166-3 0  9999
2 17974 071.0063 088.0959 0013528 172.2412 326.9755 14.17219202544496
Epoch (UTC): 24 March 2017 13:58:30
Eccentricity: 0.0013528
inclination: 71.0063°
perigee height: 825 km
apogee height: 844 km
right ascension of ascending node: 88.0959°
argument of perigee: 172.2412°
revolutions per day: 14.17219202
mean anomaly at epoch: 326.9755°
orbit number at epoch: 54449

The dashed part of the orbit path shows where the satellite is in the earth's shadow,  

DLR